Regional Weather Roundup
Issued by NWS Northern Indiana

Home | Current Version | Previous Version | Graphics & Text | Print | Product List | Glossary On
Versions: 1 2 3 4 5 6 7 8 9 10 11 12 13 14 15 16 17 18 19 20 21 22 23 24 25 26 27 28 29 30 31 32 33 34 35 36 37 38 39 40 41 42 43 44 45 46 47 48 49 50
000
ASUS43 KIWX 100410
RWRIWX

KIWX WEATHER ROUNDUP
NATIONAL WEATHER SERVICE NORTHERN INDIANA
1200 AM EDT THU JUL 10 2014

NOTE: "FAIR" INDICATES FEW OR NO CLOUDS BELOW 12,000 FEET WITH NO
SIGNIFICANT WEATHER AND/OR OBSTRUCTIONS TO VISIBILITY.

* THESE STATIONS ARE NOT UNDER NWS QUALITY CONTROL. THEY ALSO MAY NOT
  REPORT WEATHER SUCH AS PRECIPITATION OR FOG.

INZ001>027-100500-
NORTHERN INDIANA

CITY           SKY/WX    TMP DP  RH WIND       PRES   REMARKS
GARY*          CLEAR     63  60  91 CALM      30.06R
VALPARAISO     CLEAR     62  56  80 CALM      30.06R
MICHIGAN CITY* CLEAR     59  57  94 CALM      30.06S
LAPORTE*       CLEAR     61  57  86 NE5       30.07R
KNOX*          CLEAR     58  55  87 CALM      30.05R
SOUTH BEND     CLEAR     62  54  74 N6        30.07R
GOSHEN         CLEAR     62  56  80 N6        30.05R
MONTICELLO*    CLOUDY    69  58  69 NE3       30.04R
LOGANSPORT*    MOCLDY    66  55  68 CALM      30.06R
ROCHESTER*     CLEAR     64  55  72 CALM      30.06R
WARSAW*        CLEAR     63  55  77 CALM      30.06R
ANGOLA*        CLEAR     61  57  88 CALM      30.05S
FORT WAYNE     MOCLDY    66  56  70 N5        30.05R
HUNTINGTON*    MOCLDY    65  56  75 N3        30.05R
PERU/GRISSOM   CLOUDY    70  59  69 N8        30.05R
MARION*        CLOUDY    69  55  60 NE7       30.05R

$$
INZ028>050-100500-
CENTRAL INDIANA

CITY           SKY/WX    TMP DP  RH WIND       PRES   REMARKS
LAFAYETTE      CLEAR     65  59  81 N6        30.04R
KOKOMO*        CLOUDY    70  57  64 NE5       30.04R
MUNCIE*        PTCLDY    66  57  72 CALM      30.04R
INDIANAPOLIS   CLEAR     68  56  65 W3        30.03R

$$
MIZ043>046-050>051-056>058-064>065-071>073-077>080-100500-
SOUTHWEST LOWER MICHIGAN

CITY           SKY/WX    TMP DP  RH WIND       PRES   REMARKS
BATTLE CREEK   CLEAR     62  53  72 NW6       30.06R
BENTON HARBOR  CLEAR     57  56  96 CALM      30.06R
COLDWATER*     CLEAR     59  57  93 CALM      30.06R
HILLSDALE*     CLEAR     57  57  99 CALM      30.06R
HOLLAND        CLEAR     62  56  80 NW3       30.06R
GRAND RAPIDS   CLEAR     62  54  74 NW6       30.05R
KALAMAZOO      CLEAR     61  54  77 NW5       30.06R
STURGIS*       CLEAR     61  55  82 CALM      30.06R
THREE RIVERS*  FAIR      61  57  88 CALM      30.06R

$$
OHZ001>008-015>018-024>025-100500-
NORTHWEST OHIO

CITY           SKY/WX    TMP DP  RH WIND       PRES   REMARKS
WAUSEON*       FAIR      59  55  88 NW5       30.04R
DEFIANCE       CLEAR     62  55  77 CALM      30.04R
FINDLAY        CLEAR     66  57  72 NW5       30.02R
TOLEDO EXPRESS CLEAR     65  57  75 NW3       30.03R
TOLEDO METCALF CLEAR     68  56  65 CALM      30.03R
LIMA           PTCLDY    67  57  70 N8        30.03R

$$
&&



USA.gov is the U.S. government's official web portal to all federal, state and local government web resources and services.